| time (UTC) | temp C | wind direction | speed KPH | gust KPH | rain 1hr cm | rain 24hr cm | rain mn cm | humidity % | barometer mb |
| 20260505153008 | 21 | 196 | 17.7 | 38.6 | 0.00 | 0.00 | 0.00 | 46 | 1007.6 |
| 20260505151508 | 21 | 177 | 12.9 | 38.6 | 0.00 | 0.00 | 0.00 | 48 | 1007.9 |
| 20260505124546 | 15 | 190 | 6.4 | 14.5 | 0.00 | 0.00 | 0.00 | 67 | 1008.3 |
| 20260505123034 | 14 | 190 | 6.4 | 12.9 | 0.00 | 0.00 | 0.00 | 70 | 1008.3 |
| 20260505121534 | 13 | 171 | 9.7 | 14.5 | 0.00 | 0.00 | 0.00 | 72 | 1008.5 |
| 20260505120031 | 12 | 223 | 3.2 | 12.9 | 0.00 | 0.00 | 0.00 | 78 | 1008.5 |
| 20260505114521 | 11 | 205 | 3.2 | 11.3 | 0.00 | 0.00 | 0.00 | 85 | 1008.5 |
| 20260505113017 | 9 | 180 | 0.0 | 4.8 | 0.00 | 0.00 | 0.00 | 94 | 1008.6 |
| 20260505111513 | 8 | 170 | 0.0 | 3.2 | 0.00 | 0.00 | 0.00 | 96 | 1008.6 |
| 20260505101501 | 3 | 166 | 0.0 | 0.0 | 0.00 | 0.00 | 0.00 | 95 | 1008.4 |
| 20260505100005 | 3 | 166 | 0.0 | 0.0 | 0.00 | 0.00 | 0.00 | 95 | 1008.2 |
| 20260505094601 | 2 | 166 | 0.0 | 3.2 | 0.00 | 0.00 | 0.00 | 94 | 1008.3 |
| 20260505093106 | 2 | 166 | 0.0 | 0.0 | 0.00 | 0.00 | 0.00 | 94 | 1008.1 |
| 20260505091559 | 3 | 166 | 0.0 | 0.0 | 0.00 | 0.00 | 0.00 | 94 | 1008.1 |
| 20260505090057 | 3 | 166 | 1.6 | 3.2 | 0.00 | 0.00 | 0.00 | 93 | 1008.1 |
| 20260505084556 | 3 | 166 | 0.0 | 0.0 | 0.00 | 0.00 | 0.00 | 94 | 1008.1 |
| 20260505083057 | 3 | 166 | 0.0 | 1.6 | 0.00 | 0.00 | 0.00 | 94 | 1008.0 |
| 20260505081553 | 3 | 166 | 1.6 | 4.8 | 0.00 | 0.00 | 0.00 | 94 | 1008.2 |
| 20260505080049 | 4 | 166 | 1.6 | 3.2 | 0.00 | 0.00 | 0.00 | 94 | 1008.3 |
| 20260505074546 | 5 | 166 | 0.0 | 1.6 | 0.00 | 0.00 | 0.00 | 93 | 1008.3 |
| 20260505073046 | 5 | 166 | 0.0 | 0.0 | 0.00 | 0.00 | 0.00 | 94 | 1008.3 |
| 20260505071545 | 5 | 166 | 0.0 | 1.6 | 0.00 | 0.00 | 0.00 | 94 | 1008.3 |
| 20260505070048 | 5 | 166 | 0.0 | 3.2 | 0.00 | 0.00 | 0.00 | 94 | 1008.2 |
| 20260505064548 | 5 | 166 | 0.0 | 1.6 | 0.00 | 0.00 | 0.00 | 93 | 1008.1 |
| 20260505063042 | 5 | 166 | 0.0 | 8.0 | 0.00 | 0.00 | 0.00 | 93 | 1008.1 |
| 20260505061541 | 6 | 167 | 3.2 | 4.8 | 0.00 | 0.00 | 0.00 | 94 | 1008.1 |
| 20260505060041 | 6 | 168 | 0.0 | 0.0 | 0.00 | 0.00 | 0.00 | 94 | 1008.1 |
| 20260505054540 | 6 | 168 | 1.6 | 4.8 | 0.00 | 0.00 | 0.00 | 94 | 1007.9 |
| 20260505053105 | 5 | 168 | 1.6 | 8.0 | 0.00 | 0.00 | 0.00 | 93 | 1008.0 |
| 20260505051538 | 5 | 159 | 0.0 | 8.0 | 0.00 | 0.00 | 0.00 | 92 | 1008.0 |
| 20260505041541 | 5 | 196 | 0.0 | 0.0 | 0.00 | 0.00 | 0.00 | 92 | 1007.8 |
| 20260505040030 | 6 | 196 | 0.0 | 0.0 | 0.00 | 0.00 | 0.00 | 91 | 1008.5 |
| 20260505034532 | 6 | 196 | 0.0 | 0.0 | 0.00 | 0.00 | 0.00 | 90 | 1008.2 |
| 20260505033028 | 6 | 217 | 0.0 | 0.0 | 0.00 | 0.00 | 0.00 | 91 | 1008.3 |
| 20260505031527 | 6 | 217 | 0.0 | 0.0 | 0.00 | 0.00 | 0.00 | 90 | 1008.1 |
| 20260505030026 | 7 | 218 | 1.6 | 3.2 | 0.00 | 0.00 | 0.00 | 90 | 1008.2 |
| 20260505024525 | 7 | 218 | 1.6 | 3.2 | 0.00 | 0.00 | 0.00 | 89 | 1008.1 |
| 20260505023025 | 7 | 217 | 0.0 | 4.8 | 0.00 | 0.00 | 0.00 | 90 | 1008.0 |
| 20260505021524 | 6 | 170 | 4.8 | 14.5 | 0.00 | 0.00 | 0.00 | 91 | 1008.0 |
| 20260505020021 | 7 | 242 | 0.0 | 0.0 | 0.00 | 0.00 | 0.00 | 89 | 1007.6 |
| 20260505014520 | 7 | 242 | 0.0 | 3.2 | 0.00 | 0.03 | 0.00 | 89 | 1007.7 |
| 20260505013019 | 7 | 241 | 0.0 | 4.8 | 0.00 | 0.03 | 0.00 | 88 | 1007.4 |
| 20260505011542 | 7 | 242 | 1.6 | 3.2 | 0.00 | 0.03 | 0.00 | 86 | 1007.5 |
| 20260505010018 | 8 | 242 | 0.0 | 0.0 | 0.00 | 0.03 | 0.00 | 85 | 1007.3 |
| 20260505004515 | 8 | 242 | 0.0 | 3.2 | 0.00 | 0.03 | 0.00 | 84 | 1007.1 |
| 20260505003013 | 9 | 242 | 1.6 | 3.2 | 0.00 | 0.03 | 0.00 | 82 | 1006.9 |
| 20260505001511 | 10 | 242 | 1.6 | 4.8 | 0.00 | 0.03 | 0.00 | 77 | 1006.5 |
| 20260505000013 | 11 | 243 | 0.0 | 1.6 | 0.00 | 0.03 | 0.00 | 74 | 1006.2 |
| 20260504234509 | 12 | 244 | 1.6 | 6.4 | 0.00 | 0.03 | 0.00 | 73 | 1006.0 |
| 20260504233009 | 12 | 277 | 1.6 | 8.0 | 0.00 | 0.03 | 0.00 | 72 | 1005.7 |
| 20260504231510 | 12 | 279 | 1.6 | 11.3 | 0.00 | 0.03 | 0.00 | 71 | 1005.6 |
| 20260504230008 | 12 | 257 | 3.2 | 12.9 | 0.00 | 0.03 | 0.00 | 69 | 1005.5 |
| 20260504224608 | 13 | 265 | 1.6 | 12.9 | 0.00 | 0.08 | 0.00 | 68 | 1005.2 |
| 20260504223007 | 13 | 280 | 1.6 | 12.9 | 0.00 | 0.08 | 0.00 | 66 | 1005.1 |
| 20260504221508 | 13 | 259 | 8.0 | 17.7 | 0.00 | 0.08 | 0.00 | 65 | 1004.9 |
| 20260504220005 | 13 | 5 | 3.2 | 14.5 | 0.00 | 0.08 | 0.00 | 65 | 1004.6 |
| 20260504214507 | 13 | 269 | 6.4 | 25.7 | 0.00 | 0.15 | 0.00 | 63 | 1004.5 |
| 20260504213004 | 14 | 243 | 8.0 | 20.9 | 0.00 | 0.15 | 0.00 | 62 | 1004.3 |
| 20260504211506 | 14 | 295 | 6.4 | 17.7 | 0.00 | 0.15 | 0.00 | 62 | 1004.2 |
| 20260504210003 | 14 | 264 | 1.6 | 17.7 | 0.00 | 0.15 | 0.00 | 62 | 1004.2 |
| 20260504204502 | 14 | 280 | 8.0 | 17.7 | 0.00 | 0.15 | 0.00 | 61 | 1003.9 |
| 20260504203002 | 14 | 258 | 11.3 | 24.1 | 0.00 | 0.15 | 0.00 | 61 | 1004.1 |
| 20260504201501 | 14 | 238 | 9.7 | 25.7 | 0.00 | 0.15 | 0.00 | 60 | 1004.2 |
| 20260504200002 | 14 | 211 | 14.5 | 24.1 | 0.00 | 0.15 | 0.00 | 62 | 1004.0 |
| 20260504194606 | 13 | 258 | 9.7 | 19.3 | 0.00 | 0.23 | 0.00 | 65 | 1004.0 |
| 20260504193109 | 13 | 209 | 9.7 | 25.7 | 0.00 | 0.23 | 0.00 | 68 | 1004.0 |
| 20260504191613 | 12 | 213 | 9.7 | 22.5 | 0.00 | 0.23 | 0.00 | 71 | 1004.2 |
| 20260504184557 | 11 | 285 | 8.0 | 19.3 | 0.00 | 0.46 | 0.00 | 75 | 1004.7 |
| 20260504183057 | 11 | 215 | 4.8 | 16.1 | 0.00 | 0.46 | 0.00 | 75 | 1004.6 |
| 20260504181559 | 12 | 236 | 8.0 | 29.0 | 0.00 | 0.46 | 0.00 | 66 | 1004.6 |
| 20260504180055 | 13 | 242 | 14.5 | 29.0 | 0.00 | 0.46 | 0.00 | 58 | 1004.3 |
| 20260504174554 | 13 | 230 | 8.0 | 25.7 | 0.00 | 0.79 | 0.00 | 52 | 1003.6 |
| 20260504173053 | 15 | 202 | 11.3 | 22.5 | 0.00 | 0.79 | 0.00 | 44 | 1003.2 |
| 20260504171554 | 15 | 207 | 12.9 | 22.5 | 0.00 | 0.79 | 0.00 | 41 | 1003.1 |